Time,TemperatureF,DewpointF,PressureIn,WindDirection,WindDirectionDegrees,WindSpeedMPH,WindSpeedGustMPH,Humidity,HourlyPrecipIn,Conditions,Clouds,dailyrainin,SolarRadiationWatts/m^2,SoftwareType,DateUTC
2013-04-07 00:22:00,40.0,37.0,-100.00,South,188,9.0,19.0,90,0.00,,,0.21,1.000000,,2013-04-07 07:22:00,
2013-04-07 00:32:00,40.0,37.0,-100.00,South,188,9.0,19.0,90,0.00,,,0.21,1.000000,,2013-04-07 07:32:00,
2013-04-07 00:42:00,40.0,37.0,-100.00,South,188,9.0,19.0,90,0.00,,,0.21,1.000000,,2013-04-07 07:42:00,
2013-04-07 00:52:00,40.0,37.0,-100.00,South,188,9.0,19.0,90,0.00,,,0.21,1.000000,,2013-04-07 07:52:00,
2013-04-07 01:22:00,40.0,37.0,-100.00,SSW,194,9.0,20.0,90,0.03,,,0.23,1.000000,,2013-04-07 08:22:00,
2013-04-07 01:32:00,40.0,37.0,-100.00,SSW,194,9.0,20.0,90,0.03,,,0.23,1.000000,,2013-04-07 08:32:00,
2013-04-07 01:42:00,40.0,37.0,-100.00,SSW,194,9.0,20.0,90,0.03,,,0.23,1.000000,,2013-04-07 08:42:00,
2013-04-07 01:52:00,40.0,37.0,-100.00,SSW,194,9.0,20.0,90,0.03,,,0.23,1.000000,,2013-04-07 08:52:00,
2013-04-07 02:22:00,41.0,37.0,-100.00,SSW,204,7.0,22.0,84,0.00,,,0.23,1.000000,,2013-04-07 09:22:00,
2013-04-07 02:33:00,41.0,37.0,-100.00,SSW,204,7.0,22.0,84,0.00,,,0.23,1.000000,,2013-04-07 09:33:00,
2013-04-07 02:43:00,41.0,37.0,-100.00,SSW,204,7.0,22.0,84,0.00,,,0.23,1.000000,,2013-04-07 09:43:00,
2013-04-07 02:53:00,41.0,37.0,-100.00,SSW,204,7.0,22.0,84,0.00,,,0.23,1.000000,,2013-04-07 09:53:00,
2013-04-07 03:22:00,41.0,37.0,-100.00,SW,233,14.0,25.0,85,0.00,,,0.22,1.000000,,2013-04-07 10:22:00,
2013-04-07 03:33:00,41.0,37.0,-100.00,SW,233,14.0,25.0,85,0.00,,,0.22,1.000000,,2013-04-07 10:33:00,
2013-04-07 03:42:00,41.0,37.0,-100.00,SW,233,14.0,25.0,85,0.00,,,0.22,1.000000,,2013-04-07 10:42:00,
2013-04-07 03:52:00,41.0,37.0,-100.00,SW,233,14.0,25.0,85,0.00,,,0.22,1.000000,,2013-04-07 10:52:00,
2013-04-07 04:22:00,41.0,36.0,-100.00,WSW,237,19.0,32.0,83,0.00,,,0.21,1.000000,,2013-04-07 11:22:00,
2013-04-07 04:32:00,41.0,36.0,-100.00,WSW,237,19.0,32.0,83,0.00,,,0.21,1.000000,,2013-04-07 11:32:00,
2013-04-07 04:42:00,41.0,36.0,-100.00,WSW,237,19.0,32.0,83,0.00,,,0.21,1.000000,,2013-04-07 11:42:00,
2013-04-07 04:52:00,41.0,36.0,-100.00,WSW,237,19.0,32.0,83,0.00,,,0.21,1.000000,,2013-04-07 11:52:00,
2013-04-07 05:22:00,41.0,36.0,-100.00,SW,232,19.0,30.0,82,0.00,,,0.20,1.000000,,2013-04-07 12:22:00,
2013-04-07 05:33:00,41.0,36.0,-100.00,SW,232,19.0,30.0,82,0.00,,,0.20,1.000000,,2013-04-07 12:33:00,
2013-04-07 05:42:00,41.0,36.0,-100.00,SW,232,19.0,30.0,82,0.00,,,0.20,1.000000,,2013-04-07 12:42:00,
2013-04-07 05:52:00,41.0,36.0,-100.00,SW,232,19.0,30.0,82,0.00,,,0.20,1.000000,,2013-04-07 12:52:00,
2013-04-07 06:22:00,39.0,37.0,-100.00,SW,227,16.0,36.0,92,0.02,,,0.22,1.000000,,2013-04-07 13:22:00,
2013-04-07 06:32:00,39.0,37.0,-100.00,SW,227,16.0,36.0,92,0.02,,,0.22,1.000000,,2013-04-07 13:32:00,
2013-04-07 06:42:00,39.0,37.0,-100.00,SW,227,16.0,36.0,92,0.02,,,0.22,1.000000,,2013-04-07 13:42:00,
2013-04-07 06:52:00,39.0,37.0,-100.00,SW,227,16.0,36.0,92,0.02,,,0.22,1.000000,,2013-04-07 13:52:00,
2013-04-07 07:22:00,40.0,35.0,-100.00,WSW,240,14.0,24.0,83,0.00,,,0.21,2.000000,,2013-04-07 14:22:00,
2013-04-07 07:32:00,40.0,35.0,-100.00,WSW,240,14.0,24.0,83,0.00,,,0.21,2.000000,,2013-04-07 14:32:00,
2013-04-07 07:43:00,40.0,35.0,-100.00,WSW,240,14.0,24.0,83,0.00,,,0.21,2.000000,,2013-04-07 14:43:00,
2013-04-07 07:52:00,40.0,35.0,-100.00,WSW,240,14.0,24.0,83,0.00,,,0.21,2.000000,,2013-04-07 14:52:00,
2013-04-07 08:22:00,38.0,34.0,-100.00,West,265,14.0,30.0,84,0.01,,,0.22,23.000000,,2013-04-07 15:22:00,
2013-04-07 08:33:00,38.0,34.0,-100.00,West,265,14.0,30.0,84,0.01,,,0.22,23.000000,,2013-04-07 15:33:00,
2013-04-07 08:43:00,38.0,34.0,-100.00,West,265,14.0,30.0,84,0.01,,,0.22,23.000000,,2013-04-07 15:43:00,
2013-04-07 08:53:00,38.0,34.0,-100.00,West,265,14.0,30.0,84,0.01,,,0.22,23.000000,,2013-04-07 15:53:00,
2013-04-07 09:23:00,38.0,34.0,-100.00,West,265,13.0,22.0,85,0.00,,,0.22,72.000000,,2013-04-07 16:23:00,
2013-04-07 09:33:00,38.0,34.0,-100.00,West,265,13.0,22.0,85,0.00,,,0.22,72.000000,,2013-04-07 16:33:00,
2013-04-07 09:42:00,38.0,34.0,-100.00,West,265,13.0,22.0,85,0.00,,,0.22,72.000000,,2013-04-07 16:42:00,
2013-04-07 09:52:00,38.0,34.0,-100.00,West,265,13.0,22.0,85,0.00,,,0.22,72.000000,,2013-04-07 16:52:00,
2013-04-07 10:22:00,38.0,34.0,-100.00,WSW,242,12.0,22.0,86,0.00,,,0.21,147.000000,,2013-04-07 17:22:00,
2013-04-07 10:32:00,38.0,34.0,-100.00,WSW,242,12.0,22.0,86,0.00,,,0.21,147.000000,,2013-04-07 17:32:00,
2013-04-07 10:42:00,38.0,34.0,-100.00,WSW,242,12.0,22.0,86,0.00,,,0.21,147.000000,,2013-04-07 17:42:00,
2013-04-07 10:52:00,38.0,34.0,-100.00,WSW,242,12.0,22.0,86,0.00,,,0.21,147.000000,,2013-04-07 17:52:00,
2013-04-07 11:22:00,37.0,35.0,-100.00,WSW,252,11.0,21.0,91,0.03,,,0.24,138.000000,,2013-04-07 18:22:00,
2013-04-07 11:32:00,37.0,35.0,-100.00,WSW,252,11.0,21.0,91,0.03,,,0.24,138.000000,,2013-04-07 18:32:00,
2013-04-07 11:42:00,37.0,35.0,-100.00,WSW,252,11.0,21.0,91,0.03,,,0.24,138.000000,,2013-04-07 18:42:00,
2013-04-07 11:52:00,37.0,35.0,-100.00,WSW,252,11.0,21.0,91,0.03,,,0.24,138.000000,,2013-04-07 18:52:00,
2013-04-07 12:22:00,38.0,36.0,-100.00,WSW,252,9.0,17.0,91,0.03,,,0.27,297.000000,,2013-04-07 19:22:00,
2013-04-07 12:32:00,38.0,36.0,-100.00,WSW,252,9.0,17.0,91,0.03,,,0.27,297.000000,,2013-04-07 19:32:00,
2013-04-07 12:42:00,38.0,36.0,-100.00,WSW,252,9.0,17.0,91,0.03,,,0.27,297.000000,,2013-04-07 19:42:00,
2013-04-07 12:52:00,38.0,36.0,-100.00,WSW,252,9.0,17.0,91,0.03,,,0.27,297.000000,,2013-04-07 19:52:00,
2013-04-07 13:22:00,39.0,36.0,-100.00,West,273,13.0,22.0,88,0.01,,,0.28,513.000000,,2013-04-07 20:22:00,
2013-04-07 13:32:00,39.0,36.0,-100.00,West,273,13.0,22.0,88,0.01,,,0.28,513.000000,,2013-04-07 20:32:00,
2013-04-07 13:42:00,39.0,36.0,-100.00,West,273,13.0,22.0,88,0.01,,,0.28,513.000000,,2013-04-07 20:42:00,
2013-04-07 13:52:00,39.0,36.0,-100.00,West,273,13.0,22.0,88,0.01,,,0.28,513.000000,,2013-04-07 20:52:00,
2013-04-07 14:22:00,42.0,35.0,-100.00,West,264,11.0,29.0,75,0.00,,,0.28,703.000000,,2013-04-07 21:22:00,
2013-04-07 14:33:00,42.0,35.0,-100.00,West,264,11.0,29.0,75,0.00,,,0.28,703.000000,,2013-04-07 21:33:00,
2013-04-07 14:43:00,42.0,35.0,-100.00,West,264,11.0,29.0,75,0.00,,,0.28,703.000000,,2013-04-07 21:43:00,
2013-04-07 14:52:00,42.0,35.0,-100.00,West,264,11.0,29.0,75,0.00,,,0.28,703.000000,,2013-04-07 21:52:00,
2013-04-07 15:23:00,40.0,31.0,-100.00,West,275,14.0,29.0,71,0.00,,,0.28,693.000000,,2013-04-07 22:23:00,
2013-04-07 15:33:00,40.0,31.0,-100.00,West,275,14.0,29.0,71,0.00,,,0.28,693.000000,,2013-04-07 22:33:00,
2013-04-07 15:43:00,40.0,31.0,-100.00,West,275,14.0,29.0,71,0.00,,,0.28,693.000000,,2013-04-07 22:43:00,
2013-04-07 15:52:00,40.0,31.0,-100.00,West,275,14.0,29.0,71,0.00,,,0.28,693.000000,,2013-04-07 22:52:00,
2013-04-07 16:22:00,39.0,28.0,-100.00,West,270,17.0,26.0,64,0.00,,,-99.99,337.000000,,2013-04-07 23:22:00,
2013-04-07 16:32:00,39.0,28.0,-100.00,West,270,17.0,26.0,64,0.00,,,-99.99,337.000000,,2013-04-07 23:32:00,
2013-04-07 16:42:00,39.0,28.0,-100.00,West,270,17.0,26.0,64,0.00,,,-99.99,337.000000,,2013-04-07 23:42:00,
2013-04-07 16:52:00,39.0,28.0,-100.00,West,270,17.0,26.0,64,0.00,,,-99.99,337.000000,,2013-04-07 23:52:00,
2013-04-07 17:22:00,39.0,25.0,-100.00,West,271,10.0,31.0,58,0.00,,,0.27,286.000000,,2013-04-08 00:22:00,
2013-04-07 17:32:00,39.0,25.0,-100.00,West,271,10.0,31.0,58,0.00,,,0.27,286.000000,,2013-04-08 00:32:00,
2013-04-07 17:42:00,39.0,25.0,-100.00,West,271,10.0,31.0,58,0.00,,,0.27,286.000000,,2013-04-08 00:42:00,
2013-04-07 17:52:00,39.0,25.0,-100.00,West,271,10.0,31.0,58,0.00,,,0.27,286.000000,,2013-04-08 00:52:00,
2013-04-07 18:22:00,37.0,27.0,-100.00,West,280,7.0,14.0,66,0.00,,,0.25,170.000000,,2013-04-08 01:22:00,
2013-04-07 18:33:00,37.0,27.0,-100.00,West,280,7.0,14.0,66,0.00,,,0.25,170.000000,,2013-04-08 01:33:00,
2013-04-07 18:42:00,37.0,27.0,-100.00,West,280,7.0,14.0,66,0.00,,,0.25,170.000000,,2013-04-08 01:42:00,
2013-04-07 18:53:00,37.0,27.0,-100.00,West,280,7.0,14.0,66,0.00,,,0.25,170.000000,,2013-04-08 01:53:00,
2013-04-07 19:22:00,32.0,30.0,-100.00,NNW,332,9.0,15.0,92,0.00,,,0.22,37.000000,,2013-04-08 02:22:00,
2013-04-07 19:33:00,32.0,30.0,-100.00,NNW,332,9.0,15.0,92,0.00,,,0.22,37.000000,,2013-04-08 02:33:00,
2013-04-07 19:45:00,32.0,30.0,-100.00,NNW,332,9.0,15.0,92,0.00,,,0.22,37.000000,,2013-04-08 02:45:00,
2013-04-07 19:52:00,32.0,30.0,-100.00,NNW,332,9.0,15.0,92,0.00,,,0.22,37.000000,,2013-04-08 02:52:00,
2013-04-07 20:23:00,31.0,28.0,-100.00,NW,314,5.0,12.0,88,0.00,,,0.20,10.000000,,2013-04-08 03:23:00,
2013-04-07 20:33:00,31.0,28.0,-100.00,NW,314,5.0,12.0,88,0.00,,,0.20,10.000000,,2013-04-08 03:33:00,
2013-04-07 20:53:00,31.0,28.0,-100.00,NW,314,5.0,12.0,88,0.00,,,0.20,10.000000,,2013-04-08 03:53:00,
2013-04-07 21:23:00,31.0,28.0,-100.00,NW,310,4.0,8.0,87,0.00,,,0.20,1.000000,,2013-04-08 04:23:00,
2013-04-07 21:33:00,31.0,28.0,-100.00,NW,310,4.0,8.0,87,0.00,,,0.20,1.000000,,2013-04-08 04:33:00,
2013-04-07 21:43:00,31.0,28.0,-100.00,NW,310,4.0,8.0,87,0.00,,,0.20,1.000000,,2013-04-08 04:43:00,
2013-04-07 21:52:00,31.0,28.0,-100.00,NW,310,4.0,8.0,87,0.00,,,0.20,1.000000,,2013-04-08 04:52:00,
2013-04-07 22:32:00,31.0,28.0,-100.00,NNE,27,3.0,8.0,88,0.00,,,0.16,1.000000,,2013-04-08 05:32:00,
2013-04-07 22:42:00,31.0,28.0,-100.00,NNE,27,3.0,8.0,88,0.00,,,0.16,1.000000,,2013-04-08 05:42:00,
2013-04-07 22:51:00,31.0,28.0,-100.00,NNE,27,3.0,8.0,88,0.00,,,0.16,1.000000,,2013-04-08 05:51:00,
2013-04-07 23:22:00,30.0,29.0,-100.00,NNW,340,7.0,13.0,96,0.00,,,0.13,1.000000,,2013-04-08 06:22:00,
2013-04-07 23:32:00,30.0,29.0,-100.00,NNW,340,7.0,13.0,96,0.00,,,0.13,1.000000,,2013-04-08 06:32:00,
2013-04-07 23:42:00,30.0,29.0,-100.00,NNW,340,7.0,13.0,96,0.00,,,0.13,1.000000,,2013-04-08 06:42:00,
2013-04-07 23:52:00,30.0,29.0,-100.00,NNW,340,7.0,13.0,96,0.00,,,0.13,1.000000,,2013-04-08 06:52:00,